SCP
0 0 0 0 0 0 0 0 0 0 0 0 0 0 0 0 0 0 0 0 0 0 0 0 0 0 0
0 0 0 0 0 0 0 0 0 0 0 0 0 0 0 0 0 0 0 0 0 0 0 0 0 0 0
0 0 0 0 0 0 0 0 0 0 0 0 0 0 0 0 0 0 0 0 0 0 0 0 0 0 0
0 0 0 0 0 0 0 0 0 0 0 0 0 0 0 0 0 0 0 0 0 0 0 0 0 0 0
0 0 0 0 0 0 0 0 0 0 0 0 0 0 0 0 0 0 0 0 0 0 0 0 0 0 0
0 0 0 0 0 0 0 0 0 0 0 0 0 0 0 0 0 0 0 0 0 0 0 0 0 0 0
0 0 0 0 0 0 0 0 0 0 0 0 0 0 0 0 0 0 0 0 0 0 0 0 0 0 0
0 0 0 0 0 0 0 0 0 0 0 0 0 0 0 0 0 0 0 0 0 0 0 0 0 0 0
0 0 0 0 0 0 0 0 0 0 0 0 0 0 0 0 0 0 0 0 0 0 0 0 0 0 0
0 0 0 0 0 0 0 0 0 0 0 0 0 0 0 0 0 0 0 0 0 0 0 0 0 0 0
0 0 0 0 0 0 0 0 0 0 0 0 0 0 0 0 0 0 0 0 0 0 0 0 0 0 0
0 0 0 0 0 0 0 0 0 0 0 0 0 0 0 0 0 0 0 0 0 0 0 0 0 0 0
0 0 0 0 0 0 0 0 0 0 0 0 0 0 0 0 0 0 0 0 0 0 0 0 0 0 0
0 0 0 0 0 0 0 0 0 0 0 0 0 0 0 0 0 0 0 0 0 0 0 0 0 0 0
0 0 0 0 0 0 0 0 0 0 0 0 0 0 0 0 0 0 0 0 0 0 0 0 0 0 0
0 0 0 0 0 0 0 0 0 0 0 0 0 0 0 0 0 0 0 0 0 0 0 0 0 0 0
0 0 0 0 0 0 0 0 0 0 0 0 0 0 0 0 0 0 0 0 0 0 0 0 0 0 0
Wind_Speed_500mb
40 35 38 33 26 21 16 13 11 14 21 24 24 26 25 26 29 32 35 39 40 41 43 44 43 45 46
40 37 40 35 30 25 20 15 12 15 20 23 25 25 26 27 29 33 37 40 41 43 42 43 47 50 52
30 37 40 38 32 28 22 17 15 16 19 23 24 25 25 27 30 33 37 39 38 40 44 47 52 56 57
28 33 36 36 34 30 25 20 18 17 21 25 24 24 25 29 31 32 36 36 38 42 46 50 54 57 59
31 35 38 39 36 29 27 23 20 19 22 25 27 25 25 29 30 32 35 34 39 45 49 52 55 58 59
33 34 34 36 33 32 29 24 18 19 24 27 25 24 26 29 29 30 31 35 41 47 50 53 55 57 59
25 27 30 29 32 32 26 20 19 20 28 26 24 24 27 29 27 28 29 37 43 48 49 54 56 58 61
28 22 26 28 29 24 21 20 17 25 26 25 22 23 27 27 20 25 30 38 44 48 48 55 58 61 62
33 32 32 33 31 27 21 18 19 26 24 23 22 25 26 19 17 27 32 42 45 48 48 56 60 64 63
38 36 35 34 31 26 21 16 22 24 20 20 21 23 16 15 15 29 31 43 46 48 50 56 60 68 69
33 34 35 33 29 27 21 18 22 21 20 19 19 21 19 20 18 27 37 43 46 50 54 55 58 62 71
35 38 37 34 31 25 20 21 20 19 17 17 19 20 20 24 28 32 40 44 52 53 62 60 56 57 56
38 38 35 33 28 23 21 20 18 15 16 16 20 21 22 26 34 41 50 50 51 62 62 62 66 66 71
39 38 35 32 26 22 21 20 16 14 15 19 22 24 25 27 33 39 42 54 61 60 67 67 66 61 60
40 41 37 32 26 24 22 18 14 13 18 22 26 27 28 32 35 35 43 53 59 67 71 76 70 63 58
43 40 34 29 26 22 19 15 14 15 20 23 26 26 28 30 34 29 46 58 63 69 70 77 81 65 55
45 39 32 28 23 20 17 15 15 17 20 23 25 27 32 37 35 38 55 60 69 72 74 72 75 70 61
Wind_Direction_500mb
204 203 205 208 207 210 219 243 276 316 334 335 330 336 338 339 342 343 344 346 347 350 354 356 354 353 352
203 205 204 205 207 212 221 241 272 305 324 325 327 329 331 334 337 338 341 342 344 352 353 351 350 349 349
211 208 206 208 210 214 224 240 265 294 312 323 318 317 324 330 333 333 336 340 342 349 351 348 346 345 345
214 213 213 213 212 217 226 241 261 285 307 314 309 312 319 325 328 329 333 338 344 346 345 344 343 344 343
223 218 216 219 221 222 225 237 258 284 301 305 305 309 317 321 324 326 330 338 342 342 342 341 342 342 341
234 232 231 227 219 223 226 237 260 285 299 298 300 304 312 316 316 322 330 337 340 340 338 338 340 340 340
249 248 237 231 227 223 227 241 263 291 303 301 297 296 307 312 308 323 328 336 337 336 335 337 338 341 340
224 225 228 224 218 218 226 239 264 301 301 295 296 297 304 305 293 320 325 334 334 333 333 336 337 339 339
226 221 213 216 216 220 227 241 290 303 291 290 296 305 311 303 285 322 325 329 331 332 332 335 336 336 335
225 217 213 212 212 217 227 261 299 299 293 282 297 315 321 311 286 314 318 325 329 331 331 335 336 334 334
225 220 215 210 212 217 232 268 293 285 287 287 304 311 307 305 311 316 320 324 326 328 330 334 336 335 331
220 214 212 212 215 224 248 280 284 282 281 291 304 308 311 314 320 322 321 329 328 329 331 334 337 335 331
218 212 211 212 217 235 268 279 279 269 287 300 309 315 318 322 324 330 326 330 327 327 329 337 340 338 332
212 212 211 214 226 252 267 279 263 284 293 303 312 316 317 321 325 326 322 324 326 330 334 337 341 341 333
208 211 209 219 238 257 265 245 268 284 298 309 314 314 315 322 327 323 320 323 328 335 336 335 340 343 338
209 209 216 232 250 252 233 248 257 278 295 306 306 307 312 318 325 322 326 331 334 335 336 335 335 345 342
209 211 230 241 242 226 240 242 262 286 297 302 304 307 312 321 334 338 335 334 333 334 334 335 335 340 342
Wind_Speed_850mb
40 35 38 33 26 21 16 13 11 14 21 24 24 26 25 26 29 32 35 39 40 41 43 44 43 45 46
40 37 40 35 30 25 20 15 12 15 20 23 25 25 26 27 29 33 37 40 41 43 42 43 47 50 52
30 37 40 38 32 28 22 17 15 16 19 23 24 25 25 27 30 33 37 39 38 40 44 47 52 56 57
28 33 36 36 34 30 25 20 18 17 21 25 24 24 25 29 31 32 36 36 38 42 46 50 54 57 59
31 35 38 39 36 29 27 23 20 19 22 25 27 25 25 29 30 32 35 34 39 45 49 52 55 58 59
33 34 34 36 33 32 29 24 18 19 24 27 25 24 26 29 29 30 31 35 41 47 50 53 55 57 59
25 27 30 29 32 32 26 20 19 20 28 26 24 24 27 29 27 28 29 37 43 48 49 54 56 58 61
28 22 26 28 29 24 21 20 17 25 26 25 22 23 27 27 20 25 30 38 44 48 48 55 58 61 62
33 32 32 33 31 27 21 18 19 26 24 23 22 25 26 19 17 27 32 42 45 48 48 56 60 64 63
38 36 35 34 31 26 21 16 22 24 20 20 21 23 16 15 15 29 31 43 46 48 50 56 60 68 69
33 34 35 33 29 27 21 18 22 21 20 19 19 21 19 20 18 27 37 43 46 50 54 55 58 62 71
35 38 37 34 31 25 20 21 20 19 17 17 19 20 20 24 28 32 40 44 52 53 62 60 56 57 56
38 38 35 33 28 23 21 20 18 15 16 16 20 21 22 26 34 41 50 50 51 62 62 62 66 66 71
39 38 35 32 26 22 21 20 16 14 15 19 22 24 25 27 33 39 42 54 61 60 67 67 66 61 60
40 41 37 32 26 24 22 18 14 13 18 22 26 27 28 32 35 35 43 53 59 67 71 76 70 63 58
43 40 34 29 26 22 19 15 14 15 20 23 26 26 28 30 34 29 46 58 63 69 70 77 81 65 55
45 39 32 28 23 20 17 15 15 17 20 23 25 27 32 37 35 38 55 60 69 72 74 72 75 70 61
Wind_Direction_850mb
204 203 205 208 207 210 219 243 276 316 334 335 330 336 338 339 342 343 344 346 347 350 354 356 354 353 352
203 205 204 205 207 212 221 241 272 305 324 325 327 329 331 334 337 338 341 342 344 352 353 351 350 349 349
211 208 206 208 210 214 224 240 265 294 312 323 318 317 324 330 333 333 336 340 342 349 351 348 346 345 345
214 213 213 213 212 217 226 241 261 285 307 314 309 312 319 325 328 329 333 338 344 346 345 344 343 344 343
223 218 216 219 221 222 225 237 258 284 301 305 305 309 317 321 324 326 330 338 342 342 342 341 342 342 341
234 232 231 227 219 223 226 237 260 285 299 298 300 304 312 316 316 322 330 337 340 340 338 338 340 340 340
249 248 237 231 227 223 227 241 263 291 303 301 297 296 307 312 308 323 328 336 337 336 335 337 338 341 340
224 225 228 224 218 218 226 239 264 301 301 295 296 297 304 305 293 320 325 334 334 333 333 336 337 339 339
226 221 213 216 216 220 227 241 290 303 291 290 296 305 311 303 285 322 325 329 331 332 332 335 336 336 335
225 217 213 212 212 217 227 261 299 299 293 282 297 315 321 311 286 314 318 325 329 331 331 335 336 334 334
225 220 215 210 212 217 232 268 293 285 287 287 304 311 307 305 311 316 320 324 326 328 330 334 336 335 331
220 214 212 212 215 224 248 280 284 282 281 291 304 308 311 314 320 322 321 329 328 329 331 334 337 335 331
218 212 211 212 217 235 268 279 279 269 287 300 309 315 318 322 324 330 326 330 327 327 329 337 340 338 332
212 212 211 214 226 252 267 279 263 284 293 303 312 316 317 321 325 326 322 324 326 330 334 337 341 341 333
208 211 209 219 238 257 265 245 268 284 298 309 314 314 315 322 327 323 320 323 328 335 336 335 340 343 338
209 209 216 232 250 252 233 248 257 278 295 306 306 307 312 318 325 322 326 331 334 335 336 335 335 345 342
209 211 230 241 242 226 240 242 262 286 297 302 304 307 312 321 334 338 335 334 333 334 334 335 335 340 342